RYR56R LBSF-LIRP

Flight info

Callsign RYR56R
Flight time N/A
Altitude 36000
Route LBSF 27 GODE3T GODEK N188 OBLAK L615 VEBAR Y88 SPL M730 ANC DCT LIPR 30
Aircraft B738/M-VGDW/C

Departure

Time 2026-05-04 20:47
Airport Sofia Airport (LBSF)

Arrival

Time N/A
Airport Pisa International Airport (LIRP)
Time Latitude Longitude Altitude Speed Heading
2026-05-04 20:28 42.69006 23.41016 1752 ft 0 kts 162°
2026-05-04 20:40 42.69005 23.41017 1724 ft 3 kts 162°
2026-05-04 20:40 42.68958 23.41064 1750 ft 14 kts 108°
2026-05-04 20:40 42.69013 23.41229 1749 ft 25 kts 39°
2026-05-04 20:40 42.69158 23.41183 1746 ft 23 kts 340°
2026-05-04 20:41 42.69295 23.41171 1750 ft 19 kts
2026-05-04 20:41 42.69384 23.41194 1746 ft 19 kts 12°
2026-05-04 20:41 42.69476 23.41246 1748 ft 13 kts 54°
2026-05-04 20:41 42.69481 23.41366 1752 ft 13 kts 95°
2026-05-04 20:42 42.69473 23.41489 1752 ft 13 kts 95°
2026-05-04 20:42 42.69466 23.41606 1752 ft 12 kts 95°
2026-05-04 20:42 42.69458 23.41736 1752 ft 16 kts 95°
2026-05-04 20:42 42.69447 23.41915 1745 ft 22 kts 95°
2026-05-04 20:43 42.69433 23.42144 1749 ft 27 kts 95°
2026-05-04 20:43 42.69418 23.42422 1752 ft 31 kts 93°
2026-05-04 20:43 42.69402 23.42715 1746 ft 30 kts 95°
2026-05-04 20:43 42.69385 23.42991 1752 ft 29 kts 96°
2026-05-04 20:44 42.69370 23.43253 1752 ft 27 kts 95°
2026-05-04 20:44 42.69354 23.43498 1752 ft 25 kts 95°
2026-05-04 20:44 42.69340 23.43728 1752 ft 24 kts 95°
2026-05-04 20:44 42.69334 23.43899 1748 ft 15 kts 74°
2026-05-04 20:45 42.69420 23.43954 1749 ft 14 kts
2026-05-04 20:45 42.69497 23.43938 1746 ft 10 kts 322°
2026-05-04 20:45 42.69523 23.43852 1744 ft 10 kts 275°
2026-05-04 20:45 42.69525 23.43819 1746 ft 0 kts 274°
2026-05-04 20:46 42.69525 23.43817 1746 ft 2 kts 274°
2026-05-04 20:46 42.69534 23.43644 1753 ft 52 kts 275°
2026-05-04 20:46 42.69585 23.42791 1749 ft 127 kts 275°
2026-05-04 20:47 42.69671 23.41302 1763 ft 187 kts 274°
2026-05-04 20:47 42.69768 23.39468 2501 ft 198 kts 273°
2026-05-04 20:47 42.70019 23.37583 3194 ft 210 kts 294°
2026-05-04 20:47 42.70875 23.36100 4076 ft 196 kts 323°
2026-05-04 20:48 42.72067 23.35312 4916 ft 186 kts 346°
2026-05-04 20:48 42.73343 23.35048 5607 ft 188 kts 353°
2026-05-04 20:48 42.74635 23.34827 6198 ft 191 kts 353°
2026-05-04 20:48 42.76006 23.34592 6493 ft 210 kts 353°
2026-05-04 20:49 42.77480 23.34336 6933 ft 214 kts 354°
2026-05-04 20:49 42.78979 23.34071 7390 ft 220 kts 354°
2026-05-04 20:49 42.80511 23.33797 7873 ft 224 kts 354°
2026-05-04 20:49 42.82077 23.33516 8365 ft 229 kts 355°
2026-05-04 20:50 42.83673 23.33228 8860 ft 233 kts 355°
2026-05-04 20:50 42.85298 23.32886 9352 ft 240 kts 347°
2026-05-04 20:50 42.86745 23.31687 9841 ft 250 kts 321°
2026-05-04 20:50 42.88002 23.30031 10324 ft 253 kts 322°
2026-05-04 20:51 42.89301 23.28400 10797 ft 256 kts 322°
2026-05-04 20:51 42.90633 23.26737 11257 ft 260 kts 322°
2026-05-04 20:51 42.91973 23.25061 11732 ft 262 kts 322°
2026-05-04 20:51 42.93330 23.23362 12166 ft 269 kts 322°
2026-05-04 20:52 42.94726 23.21612 12667 ft 275 kts 321°
2026-05-04 20:52 42.96134 23.19843 13182 ft 282 kts 321°
2026-05-04 20:52 42.97596 23.18003 13711 ft 289 kts 321°
2026-05-04 20:52 42.99097 23.16113 14183 ft 296 kts 321°
2026-05-04 20:53 43.00627 23.14184 14666 ft 303 kts 320°
2026-05-04 20:53 43.02192 23.12208 15138 ft 310 kts 320°
2026-05-04 20:53 43.03797 23.10182 15574 ft 318 kts 320°
2026-05-04 20:53 43.05436 23.08109 16044 ft 324 kts 320°
2026-05-04 20:54 43.07117 23.05982 16511 ft 331 kts 320°
2026-05-04 20:54 43.08825 23.03820 16985 ft 338 kts 319°
2026-05-04 20:54 43.10550 23.01635 17466 ft 344 kts 319°
2026-05-04 20:54 43.12322 22.99389 17952 ft 350 kts 319°
2026-05-04 20:55 43.14031 22.96964 18427 ft 358 kts 312°
2026-05-04 20:55 43.15612 22.94295 18858 ft 363 kts 310°
2026-05-04 20:55 43.17159 22.91533 19297 ft 368 kts 309°
2026-05-04 20:55 43.18728 22.88716 19729 ft 373 kts 309°
2026-05-04 20:56 43.20316 22.85887 20173 ft 377 kts 309°
2026-05-04 20:56 43.21936 22.83033 20628 ft 381 kts 309°
2026-05-04 20:56 43.23581 22.80159 21080 ft 384 kts 309°
2026-05-04 20:56 43.25243 22.77268 21545 ft 387 kts 310°
2026-05-04 20:57 43.26895 22.74399 22009 ft 389 kts 309°
2026-05-04 20:57 43.28583 22.71472 22479 ft 391 kts 309°
2026-05-04 20:57 43.30271 22.68541 22957 ft 393 kts 309°
2026-05-04 20:57 43.31977 22.65580 23448 ft 395 kts 309°
2026-05-04 20:58 43.33679 22.62621 23904 ft 396 kts 309°
2026-05-04 20:58 43.35387 22.59648 24318 ft 397 kts 309°
2026-05-04 20:58 43.37098 22.56666 24743 ft 397 kts 309°
2026-05-04 20:58 43.38811 22.53677 25169 ft 398 kts 309°
2026-05-04 20:59 43.40529 22.50678 25607 ft 398 kts 309°
2026-05-04 20:59 43.42242 22.47683 26044 ft 398 kts 309°
2026-05-04 20:59 43.43947 22.44700 26487 ft 397 kts 309°
2026-05-04 20:59 43.45635 22.41745 26937 ft 397 kts 309°
2026-05-04 21:00 43.47334 22.38765 27401 ft 396 kts 308°
2026-05-04 21:00 43.48861 22.35605 27848 ft 396 kts 299°
2026-05-04 21:00 43.49954 22.32143 28325 ft 395 kts 291°
2026-05-04 21:00 43.50897 22.28589 28821 ft 393 kts 292°
2026-05-04 21:01 43.51839 22.25065 29297 ft 391 kts 292°
2026-05-04 21:01 43.52782 22.21568 29803 ft 388 kts 292°
2026-05-04 21:01 43.53726 22.18092 30277 ft 386 kts 292°
2026-05-04 21:01 43.54667 22.14641 30707 ft 382 kts 292°
2026-05-04 21:02 43.55599 22.11228 31139 ft 379 kts 293°
2026-05-04 21:02 43.56523 22.07845 31571 ft 375 kts 293°
2026-05-04 21:02 43.57438 22.04494 32002 ft 370 kts 293°
2026-05-04 21:02 43.58328 22.01228 32455 ft 365 kts 294°
2026-05-04 21:03 43.59212 21.97979 32903 ft 360 kts 294°
2026-05-04 21:03 43.60084 21.94770 33361 ft 353 kts 294°
2026-05-04 21:03 43.60939 21.91622 33619 ft 354 kts 294°
2026-05-04 21:03 43.61827 21.88357 33404 ft 367 kts 294°
2026-05-04 21:04 43.62739 21.85000 33281 ft 377 kts 294°
2026-05-04 21:04 43.63659 21.81599 33431 ft 380 kts 294°
2026-05-04 21:04 43.64587 21.78161 33557 ft 383 kts 293°
2026-05-04 21:04 43.65520 21.74694 33705 ft 386 kts 293°
2026-05-04 21:05 43.66459 21.71204 33827 ft 389 kts 293°
2026-05-04 21:05 43.67405 21.67686 33977 ft 391 kts 293°
2026-05-04 21:05 43.68342 21.64198 34104 ft 394 kts 293°
2026-05-04 21:05 43.69237 21.60604 34224 ft 397 kts 290°
2026-05-04 21:06 43.69999 21.56920 34347 ft 400 kts 288°
2026-05-04 21:06 43.70707 21.53196 34469 ft 402 kts 288°
2026-05-04 21:06 43.71401 21.49452 34584 ft 405 kts 288°
2026-05-04 21:06 43.72108 21.45655 34701 ft 406 kts 288°
2026-05-04 21:07 43.72822 21.41864 34825 ft 408 kts 288°
2026-05-04 21:07 43.73546 21.38054 34947 ft 410 kts 288°
2026-05-04 21:07 43.74279 21.34230 35071 ft 412 kts 288°
2026-05-04 21:07 43.75007 21.30437 35191 ft 413 kts 288°
2026-05-04 21:08 43.75746 21.26594 35314 ft 415 kts 288°
2026-05-04 21:08 43.76488 21.22731 35436 ft 416 kts 288°
2026-05-04 21:08 43.77231 21.18858 35559 ft 417 kts 288°
2026-05-04 21:08 43.77974 21.14976 35681 ft 418 kts 288°
2026-05-04 21:09 43.78722 21.11059 35810 ft 420 kts 288°
2026-05-04 21:09 43.79468 21.07140 35931 ft 421 kts 288°
2026-05-04 21:09 43.80202 21.03277 36058 ft 422 kts 288°
2026-05-04 21:09 43.80960 20.99283 36097 ft 424 kts 288°
2026-05-04 21:10 43.82454 20.91385 36101 ft 429 kts 288°
2026-05-04 21:10 43.83961 20.83384 36107 ft 431 kts 287°
2026-05-04 21:11 43.85472 20.75323 36104 ft 432 kts 287°
2026-05-04 21:11 43.86977 20.67258 36093 ft 432 kts 287°
2026-05-04 21:12 43.88473 20.59209 36099 ft 431 kts 287°
2026-05-04 21:12 43.89963 20.51165 36098 ft 429 kts 287°
2026-05-04 21:13 43.91438 20.43162 36093 ft 427 kts 287°
2026-05-04 21:13 43.92897 20.35206 36095 ft 425 kts 287°
2026-05-04 21:14 43.94342 20.27285 36096 ft 423 kts 287°
2026-05-04 21:14 43.95779 20.19380 36087 ft 421 kts 287°
2026-05-04 21:15 43.97196 20.11553 36094 ft 421 kts 286°
2026-05-04 21:15 43.98618 20.03666 36093 ft 421 kts 286°
2026-05-04 21:16 44.00034 19.95781 36095 ft 421 kts 286°
2026-05-04 21:16 44.01445 19.87885 36092 ft 422 kts 286°
2026-05-04 21:17 44.02856 19.79963 36093 ft 422 kts 286°
2026-05-04 21:17 44.04264 19.72021 36096 ft 423 kts 286°
2026-05-04 21:18 44.05669 19.64071 36096 ft 424 kts 286°
2026-05-04 21:18 44.07063 19.56154 36080 ft 425 kts 286°
2026-05-04 21:19 44.08459 19.48164 36080 ft 425 kts 285°
2026-05-04 21:19 44.09848 19.40170 36079 ft 425 kts 285°
2026-05-04 21:20 44.11234 19.32169 36087 ft 425 kts 285°
2026-05-04 21:20 44.12615 19.24150 36065 ft 425 kts 284°
2026-05-04 21:21 44.13002 19.20077 36066 ft 427 kts 272°
2026-05-04 21:21 44.12806 19.15957 36094 ft 429 kts 263°
2026-05-04 21:21 44.12114 19.11945 36066 ft 433 kts 252°
2026-05-04 21:21 44.11018 19.08035 36095 ft 433 kts 251°
2026-05-04 21:22 44.08798 19.00239 36083 ft 433 kts 251°
2026-05-04 21:22 44.06614 18.92422 36088 ft 432 kts 252°
2026-05-04 21:23 44.04455 18.84625 36079 ft 432 kts 252°
2026-05-04 21:23 44.02289 18.76814 36084 ft 432 kts 252°
2026-05-04 21:24 44.00132 18.69064 36082 ft 432 kts 251°
2026-05-04 21:24 43.97958 18.61279 36096 ft 432 kts 251°
2026-05-04 21:25 43.95776 18.53486 36094 ft 433 kts 251°
2026-05-04 21:25 43.93591 18.45709 36106 ft 433 kts 252°
2026-05-04 21:26 43.91842 18.37751 36111 ft 430 kts 258°
2026-05-04 21:26 43.90387 18.29703 36106 ft 430 kts 258°
2026-05-04 21:27 43.88873 18.21695 36105 ft 429 kts 257°
2026-05-04 21:27 43.87311 18.13697 36102 ft 429 kts 257°
2026-05-04 21:28 43.86009 18.07078 36104 ft 428 kts 257°
2026-05-04 21:28 43.84180 17.97850 36106 ft 427 kts 257°
2026-05-04 21:29 43.82867 17.91235 36106 ft 427 kts 257°
2026-05-04 21:29 43.81030 17.82027 36107 ft 426 kts 257°
2026-05-04 21:30 43.79708 17.75409 36122 ft 425 kts 257°
2026-05-04 21:30 43.77873 17.66254 36118 ft 424 kts 257°
2026-05-04 21:31 43.75769 17.55800 36130 ft 422 kts 257°
2026-05-04 21:32 43.74190 17.47969 36139 ft 422 kts 257°
2026-05-04 21:32 43.72618 17.40171 36145 ft 421 kts 257°
2026-05-04 21:33 43.71043 17.32377 36152 ft 421 kts 257°
2026-05-04 21:33 43.69473 17.24641 36152 ft 420 kts 257°
2026-05-04 21:34 43.67887 17.16860 36154 ft 420 kts 257°
2026-05-04 21:34 43.66299 17.09095 36150 ft 420 kts 257°
2026-05-04 21:35 43.64704 17.01321 36149 ft 421 kts 257°
2026-05-04 21:35 43.63100 16.93545 36152 ft 421 kts 256°
2026-05-04 21:36 43.61472 16.85795 36145 ft 421 kts 256°
2026-05-04 21:36 43.59828 16.78031 36155 ft 421 kts 256°
2026-05-04 21:37 43.58196 16.70334 36132 ft 421 kts 256°
2026-05-04 21:37 43.56549 16.62590 36133 ft 421 kts 256°
2026-05-04 21:38 43.54896 16.54845 36128 ft 420 kts 256°
2026-05-04 21:38 43.53240 16.47107 36124 ft 420 kts 256°
2026-05-04 21:39 43.51593 16.39439 36125 ft 419 kts 256°
2026-05-04 21:39 43.50051 16.31762 36115 ft 415 kts 263°
2026-05-04 21:40 43.49879 16.23881 36141 ft 409 kts 276°
2026-05-04 21:40 43.50280 16.16061 36130 ft 408 kts 275°
2026-05-04 21:41 43.50623 16.08266 36114 ft 407 kts 275°
2026-05-04 21:41 43.50947 16.00531 36134 ft 406 kts 275°
2026-05-04 21:42 43.51269 15.92760 36122 ft 406 kts 275°
2026-05-04 21:42 43.51587 15.84982 36123 ft 406 kts 275°
2026-05-04 21:43 43.51899 15.77211 36119 ft 405 kts 275°
2026-05-04 21:43 43.52202 15.69452 36115 ft 405 kts 275°
2026-05-04 21:44 43.52495 15.61744 36115 ft 406 kts 275°
2026-05-04 21:44 43.52787 15.53980 36118 ft 406 kts 275°
2026-05-04 21:45 43.53073 15.46209 36117 ft 406 kts 275°
2026-05-04 21:45 43.53354 15.38448 36114 ft 406 kts 275°
2026-05-04 21:46 43.53630 15.30673 36112 ft 406 kts 275°
2026-05-04 21:46 43.53901 15.22907 36111 ft 405 kts 275°
2026-05-04 21:47 43.54165 15.15192 36108 ft 405 kts 275°
2026-05-04 21:47 43.54425 15.07443 36105 ft 404 kts 275°
2026-05-04 21:48 43.54679 14.99727 36103 ft 404 kts 275°
2026-05-04 21:48 43.54929 14.91975 36105 ft 403 kts 275°
2026-05-04 21:49 43.55174 14.84274 36100 ft 402 kts 274°
2026-05-04 21:49 43.55414 14.76577 36103 ft 401 kts 274°
2026-05-04 21:50 43.55649 14.68891 36102 ft 401 kts 274°
2026-05-04 21:50 43.55878 14.61226 36101 ft 400 kts 274°
2026-05-04 21:51 43.56101 14.53577 36099 ft 399 kts 274°
2026-05-04 21:51 43.56319 14.45975 36099 ft 399 kts 274°
2026-05-04 21:52 43.56527 14.38326 36097 ft 398 kts 274°
2026-05-04 21:52 43.56717 14.30694 36099 ft 398 kts 274°
2026-05-04 21:53 43.56902 14.23125 36095 ft 398 kts 274°
2026-05-04 21:53 43.57086 14.15499 36095 ft 397 kts 274°
2026-05-04 21:54 43.57274 14.07877 36097 ft 397 kts 274°
2026-05-04 21:54 43.57473 14.00262 36092 ft 397 kts 274°
2026-05-04 21:55 43.57666 13.92658 36087 ft 397 kts 273°
2026-05-04 21:55 43.57852 13.85049 36090 ft 397 kts 273°
2026-05-04 21:56 43.58025 13.77442 36090 ft 396 kts 273°
2026-05-04 21:56 43.58185 13.69881 36096 ft 396 kts 273°
2026-05-04 21:57 43.58343 13.62263 36099 ft 396 kts 273°
2026-05-04 21:57 43.58497 13.54670 36103 ft 396 kts 272°
2026-05-04 21:58 43.58646 13.47076 36102 ft 396 kts 272°
2026-05-04 21:58 43.58808 13.39481 36103 ft 396 kts 273°
2026-05-04 21:59 43.58970 13.31933 36105 ft 396 kts 273°
2026-05-04 21:59 43.59145 13.24342 36103 ft 395 kts 272°
2026-05-04 22:00 43.59325 13.16757 36101 ft 395 kts 272°
2026-05-04 22:00 43.59513 13.09186 36105 ft 395 kts 273°
2026-05-04 22:01 43.59693 13.01655 36110 ft 396 kts 273°
2026-05-04 22:01 43.59895 12.94009 36114 ft 402 kts 272°
2026-05-04 22:02 43.60108 12.86293 36119 ft 404 kts 273°
2026-05-04 22:02 43.60330 12.78505 36105 ft 405 kts 272°
2026-05-04 22:03 43.60561 12.70733 36113 ft 406 kts 272°
2026-05-04 22:03 43.60798 12.62961 36118 ft 405 kts 273°
2026-05-04 22:04 43.60989 12.56866 36112 ft 404 kts 272°
2026-05-04 22:04 43.61246 12.48649 36133 ft 402 kts 273°
2026-05-04 22:05 43.61503 12.40946 36125 ft 401 kts 272°
2026-05-04 22:05 43.61771 12.33328 36125 ft 399 kts 272°
2026-05-04 22:06 43.62343 12.25686 35615 ft 403 kts 286°
2026-05-04 22:06 43.63469 12.22185 35319 ft 398 kts 299°
2026-05-04 22:06 43.65201 12.19217 34994 ft 399 kts 313°
2026-05-04 22:06 43.67452 12.16932 34609 ft 404 kts 326°
2026-05-04 22:07 43.70065 12.15463 34159 ft 412 kts 339°
2026-05-04 22:07 43.72946 12.14896 33483 ft 424 kts 353°
2026-05-04 22:07 43.75911 12.15148 32887 ft 430 kts
2026-05-04 22:07 43.78888 12.15640 32274 ft 432 kts
2026-05-04 22:08 43.81857 12.16319 31633 ft 438 kts 10°
2026-05-04 22:08 43.84729 12.17875 31036 ft 446 kts 25°
2026-05-04 22:08 43.87021 12.20018 30534 ft 451 kts 38°
2026-05-04 22:08 43.88980 12.22782 29990 ft 455 kts 49°
2026-05-04 22:09 43.90879 12.26237 29352 ft 457 kts 54°
2026-05-04 22:09 43.92402 12.30101 28663 ft 458 kts 68°
2026-05-04 22:09 43.93259 12.34334 28001 ft 451 kts 82°
2026-05-04 22:09 43.93390 12.38627 27366 ft 442 kts 96°
2026-05-04 22:10 43.92832 12.42702 26774 ft 433 kts 108°
2026-05-04 22:10 43.91869 12.46670 26166 ft 424 kts 112°
2026-05-04 22:10 43.90849 12.50489 25574 ft 418 kts 112°
2026-05-04 22:10 43.89848 12.54240 24986 ft 413 kts 108°
2026-05-04 22:11 43.89256 12.58136 24403 ft 410 kts 100°
2026-05-04 22:11 43.88827 12.62018 23824 ft 405 kts 100°
2026-05-04 22:11 43.88392 12.65809 23179 ft 401 kts 101°
2026-05-04 22:11 43.87937 12.69599 22518 ft 396 kts 101°
2026-05-04 22:12 43.87472 12.73344 21868 ft 392 kts 101°
2026-05-04 22:12 43.87019 12.77051 21229 ft 388 kts 98°
2026-05-04 22:12 43.87083 12.80755 20559 ft 386 kts 76°
2026-05-04 22:12 43.88175 12.84111 19953 ft 381 kts 51°
2026-05-04 22:13 43.90120 12.86530 19357 ft 373 kts 27°
2026-05-04 22:13 43.92508 12.87654 18893 ft 362 kts
2026-05-04 22:13 43.94955 12.87442 18527 ft 347 kts 339°
2026-05-04 22:13 43.96979 12.85818 18141 ft 333 kts 312°
2026-05-04 22:14 43.98185 12.83173 17726 ft 319 kts 285°
2026-05-04 22:14 43.98605 12.80183 17151 ft 316 kts 277°
2026-05-04 22:14 43.98908 12.77151 16513 ft 317 kts 276°
2026-05-04 22:14 43.99201 12.74109 15867 ft 318 kts 276°
2026-05-04 22:15 43.99492 12.71075 15280 ft 318 kts 276°
2026-05-04 22:15 43.99786 12.68024 14720 ft 316 kts 276°
2026-05-04 22:15 44.00075 12.65044 14183 ft 315 kts 276°
2026-05-04 22:15 44.00371 12.62041 13607 ft 313 kts 276°
2026-05-04 22:16 44.00662 12.59049 13004 ft 311 kts 273°
2026-05-04 22:16 44.00401 12.56164 12689 ft 296 kts 248°
2026-05-04 22:16 43.99765 12.53504 12394 ft 287 kts 256°
2026-05-04 22:16 43.99398 12.50813 12074 ft 279 kts 257°
2026-05-04 22:17 43.99247 12.49046 11789 ft 279 kts 270°
2026-05-04 22:17 43.99917 12.45655 11287 ft 278 kts 300°
2026-05-04 22:17 44.01058 12.43498 10953 ft 275 kts 306°
2026-05-04 22:17 44.02259 12.41439 10577 ft 272 kts 307°
2026-05-04 22:18 44.03070 12.40065 10294 ft 272 kts 307°
2026-05-04 22:18 44.04259 12.38054 9816 ft 274 kts 307°
2026-05-04 22:18 44.05477 12.35994 9326 ft 276 kts 307°
2026-05-04 22:18 44.06697 12.33930 8829 ft 276 kts 307°
2026-05-04 22:19 44.07916 12.31865 8395 ft 275 kts 307°
2026-05-04 22:19 44.09266 12.29986 7865 ft 279 kts 328°
2026-05-04 22:19 44.11128 12.29266 7384 ft 282 kts
2026-05-04 22:19 44.12986 12.30070 6909 ft 281 kts 36°
2026-05-04 22:20 44.14228 12.32105 6445 ft 277 kts 66°
2026-05-04 22:20 44.14816 12.34591 5950 ft 274 kts 86°
2026-05-04 22:20 44.14528 12.37150 5520 ft 265 kts 116°
2026-05-04 22:20 44.13783 12.39472 5068 ft 264 kts 116°
2026-05-04 22:21 44.12949 12.41767 4476 ft 264 kts 124°
2026-05-04 22:21 44.11961 12.43879 3890 ft 257 kts 127°
2026-05-04 22:21 44.10975 12.45899 3386 ft 248 kts 127°
2026-05-04 22:21 44.09969 12.47863 2668 ft 252 kts 131°
2026-05-04 22:22 44.08832 12.49632 2210 ft 237 kts 137°
2026-05-04 22:22 44.07736 12.51194 1885 ft 219 kts 136°
2026-05-04 22:22 44.06759 12.52766 1462 ft 209 kts 133°
2026-05-04 22:22 44.05870 12.54276 1155 ft 194 kts 130°
2026-05-04 22:23 44.05087 12.55720 895 ft 180 kts 130°
2026-05-04 22:23 44.04318 12.57084 543 ft 181 kts 130°
2026-05-04 22:23 44.03571 12.58439 301 ft 170 kts 129°
2026-05-04 22:23 44.02838 12.59733 68 ft 168 kts 128°
2026-05-04 22:24 44.02177 12.60913 36 ft 131 kts 128°
2026-05-04 22:24 44.01790 12.61603 41 ft 46 kts 128°
2026-05-04 22:24 44.01633 12.61884 43 ft 34 kts 128°
2026-05-04 22:24 44.01496 12.62128 43 ft 29 kts 128°
2026-05-04 22:25 44.01386 12.62296 44 ft 16 kts 159°
2026-05-04 22:25 44.01342 12.62363 44 ft 0 kts 125°
2026-05-04 22:25 44.01333 12.62375 43 ft 6 kts 146°
2026-05-04 22:25 44.01283 12.62394 46 ft 10 kts 167°
2026-05-04 22:26 44.01215 12.62403 48 ft 10 kts 181°
2026-05-04 22:26 44.01151 12.62408 46 ft 9 kts 185°
2026-05-04 22:26 44.01087 12.62410 49 ft 9 kts 173°
2026-05-04 22:26 44.01046 12.62370 49 ft 8 kts 279°
2026-05-04 22:27 44.01077 12.62305 48 ft 8 kts 309°
2026-05-04 22:27 44.01115 12.62250 48 ft 9 kts 310°
2026-05-04 22:27 44.01196 12.62115 47 ft 23 kts 309°
2026-05-04 22:27 44.01300 12.61944 45 ft 23 kts 310°
2026-05-04 22:28 44.01400 12.61777 42 ft 22 kts 309°
2026-05-04 22:28 44.01496 12.61615 43 ft 21 kts 309°
2026-05-04 22:28 44.01586 12.61462 41 ft 16 kts 309°
2026-05-04 22:28 44.01660 12.61420 41 ft 12 kts 30°
2026-05-04 22:29 44.01745 12.61510 40 ft 22 kts 37°
2026-05-04 22:29 44.01895 12.61674 38 ft 11 kts 37°
2026-05-04 22:29 44.01960 12.61712 40 ft 11 kts 342°
2026-05-04 22:29 44.02012 12.61639 40 ft 12 kts 308°
2026-05-04 22:30 44.02089 12.61632 38 ft 14 kts 34°
2026-05-04 22:30 44.02162 12.61709 40 ft 13 kts 39°
2026-05-04 22:30 44.02231 12.61789 40 ft 13 kts 38°
2026-05-04 22:30 44.02247 12.61806 40 ft 0 kts 38°